Weather History for KAKO - October, 2012

Change the Weather History Date:

Friday, October 12, 2012

  Actual Average Record
Temperature  
Mean Temperature 49 °F 52 °F  
Max Temperature 68 °F 65 °F 87 °F (1975)
Min Temperature 30 °F 38 °F 18 °F (1969)
Degree Days  
Heating Degree Days 16    
Month to date heating degree days 219  
Cooling Degree Days 0    
Month to date cooling degree days 0  
Moisture  
Dew Point 33 °F    
Average Humidity 62    
Maximum Humidity 92    
Minimum Humidity 32    
Precipitation  
Precipitation 0.00 in 0.05 in 0.64 in (1943)
Month to date precipitation 0.23 0.51  
Year to date precipitation 7.33 15.16  
Sea Level Pressure  
Sea Level Pressure 30.02 in    
Wind  
Wind Speed 15 mph (SSE)    
Max Wind Speed 26 mph    
Max Gust Speed 33 mph    
Visibility 10 miles    
Events      
T = Trace of Precipitation, MM = Missing Value Source: NWS Daily Summary

Daily Weather History Graph

Daily Weather History Graph

Search for Another Location

Airport or City:

Trip Planner

Search our weather history database for the weather conditions in past years. The results will help you decide how hot, cold, wet, or windy it might be!

Date:

Astronomy

Oct. 12, 2012 Rise Set
Actual Time 7:00 AM MDT 6:16 PM MDT
Civil Twilight 6:33 AM MDT 6:44 PM MDT
Nautical Twilight 6:02 AM MDT 7:15 PM MDT
Astronomical Twilight 5:30 AM MDT 7:46 PM MDT
Moon 3:46 AM MDT (10/12) 4:27 PM MDT (10/12)
Length of Visible Light 12h 10m
Length of Day
11h 15m
Waning Crescent, 10% of the Moon is Illuminated
Oct 12
Waning Crescent
Oct 15
New
Oct 21
First Quarter
Oct 29
Full
Nov 6
Last Quarter

Hourly Weather History & Observations

Time (MDT) Temp. Windchill Dew Point Humidity Pressure Visibility Wind Dir Wind Speed Gust Speed Precip Events Conditions
12:53 AM 34.0 °F 25.0 °F 28.0 °F 79% 30.26 in 10.0 mi ESE 12.7 mph - N/A   Clear
2:53 AM 30.9 °F 20.7 °F 28.0 °F 89% 30.23 in 10.0 mi SE 13.8 mph - N/A   Clear
3:53 AM 32.0 °F 21.2 °F 26.1 °F 79% 30.20 in 10.0 mi SE 16.1 mph - N/A   Clear
4:53 AM 32.0 °F 20.8 °F 26.1 °F 79% 30.19 in 10.0 mi SE 17.3 mph - N/A   Clear
5:53 AM 30.9 °F 21.2 °F 25.0 °F 79% 30.21 in 10.0 mi SE 12.7 mph - N/A   Clear
6:53 AM 30.9 °F 19.8 °F 25.0 °F 79% 30.22 in 10.0 mi SE 16.1 mph - N/A   Clear
7:53 AM 32.0 °F 20.8 °F 26.1 °F 79% 30.22 in 10.0 mi SSE 17.3 mph 23.0 mph N/A   Clear
8:53 AM 37.9 °F 28.2 °F 28.0 °F 68% 30.17 in 10.0 mi SSE 18.4 mph - N/A   Clear
11:53 AM 55.9 °F - 33.1 °F 42% 30.06 in 10.0 mi South 20.7 mph 26.5 mph N/A   Clear
12:53 PM 59.0 °F - 35.1 °F 41% 30.02 in 10.0 mi South 20.7 mph 29.9 mph N/A   Clear
1:53 PM 55.9 °F - 34.0 °F 44% 29.98 in 10.0 mi South 17.3 mph - N/A   Partly Cloudy
2:53 PM 57.9 °F - 36.0 °F 44% 29.92 in 10.0 mi South 12.7 mph - N/A   Scattered Clouds
3:53 PM 68.0 °F - 37.9 °F 33% 29.86 in 10.0 mi SSE 15.0 mph - N/A   Clear
4:53 PM 64.0 °F - 37.0 °F 37% 29.85 in 10.0 mi South 11.5 mph - N/A   Clear
5:53 PM 61.0 °F - 37.9 °F 42% 29.86 in 10.0 mi South 17.3 mph - N/A   Clear
6:53 PM 61.0 °F - 39.0 °F 44% 29.87 in 10.0 mi South 13.8 mph 23.0 mph N/A   Mostly Cloudy
8:53 PM 54.0 °F - 39.9 °F 59% 29.88 in 10.0 mi South 9.2 mph - N/A   Clear
9:53 PM 53.1 °F - 39.9 °F 61% 29.86 in 10.0 mi SSW 9.2 mph - N/A   Clear
10:53 PM 52.0 °F - 41.0 °F 66% 29.83 in 10.0 mi SW 10.4 mph - N/A   Clear
11:53 PM 50.0 °F - 39.9 °F 68% 29.78 in 10.0 mi SW 8.1 mph - N/A   Clear